Location: Audruicq
(50.8780°N, 2.0797°E)
Time: 11:46:36
(UTC+00:00)

Cosmos 1626 Rocket - Pass Details

Date: 15 May 2026
Orbit: 597 x 622 km, 82.5° (Epoch: 6 June)

Event Time Altitude Azimuth Distance (km) Brightness Sun altitude
Rises 20:54:30 0° 346° (NNW) 2,881 8.2 -10.4°
Reaches altitude 10° 20:56:44 10° 343° (NNW) 1,976 7.3 -10.6°
Maximum altitude 21:01:03 61° 264° (W) 702 4.0 -11.1°
Drops below altitude 10° 21:05:21 10° 185° (S) 1,975 5.7 -11.5°
Enters shadow 21:05:44 - 184° (S) 2,128 5.9 -11.5°
